CST,Max TemperatureF,Mean TemperatureF,Min TemperatureF,Max Dew PointF,MeanDew PointF,Min DewpointF,Max Humidity, Mean Humidity, Min Humidity, Max Sea Level PressureIn, Mean Sea Level PressureIn, Min Sea Level PressureIn, Max VisibilityMiles, Mean VisibilityMiles, Min VisibilityMiles, Max Wind SpeedMPH, Mean Wind SpeedMPH, Max Gust SpeedMPH,PrecipitationIn, CloudCover, Events, WindDirDegrees
2013-2-1,48,40,32,28,16,7,65,39,19,30.36,30.30,30.18,10,10,10,16,10,21,0.00,0,,321
2013-2-2,61,45,28,43,22,10,82,44,21,30.33,30.22,30.11,10,10,10,12,7,17,0.01,2,,224
2013-2-3,61,49,36,37,31,25,87,56,25,30.16,30.10,30.03,10,10,9,21,9,30,0.00,0,,278
2013-2-4,54,45,36,34,27,23,70,51,33,30.12,30.05,29.98,10,10,10,9,5,,0.00,0,,110
2013-2-5,66,56,45,50,43,30,88,61,46,30.04,30.00,29.96,10,10,10,10,5,,0.00,5,,222
2013-2-6,72,58,43,50,40,32,93,58,25,30.15,30.09,30.03,10,8,0,10,4,,0.00,1,,51
2013-2-7,55,52,48,50,45,37,88,80,51,30.10,29.96,29.77,10,8,3,16,8,23,0.79,8,,45
2013-2-8,55,47,39,48,44,34,93,83,71,30.17,30.04,29.92,10,8,1,12,6,21,0.00,6,,334
2013-2-9,63,49,34,34,30,27,81,53,26,30.26,30.20,30.16,10,10,10,17,8,22,0.00,0,,83
2013-2-10,64,55,46,55,42,23,94,63,40,30.21,30.12,29.98,10,10,4,18,11,25,1.23,5,Thunderstorm,115
2013-2-11,63,59,54,59,54,48,94,86,63,30.13,30.08,30.02,10,9,2,13,6,17,1.78,8,Thunderstorm,355
2013-2-12,54,50,45,50,43,39,93,84,62,30.10,29.96,29.77,10,10,5,14,8,18,1.51,8,Thunderstorm,39
2013-2-13,52,45,37,48,42,34,94,79,66,29.99,29.85,29.71,10,8,0,14,9,21,0.01,7,,277
2013-2-14,55,46,36,36,34,30,87,69,44,30.10,30.04,29.98,10,10,5,12,4,,0.00,1,,312
2013-2-15,63,50,36,37,33,28,87,57,30,30.12,30.04,29.99,10,10,10,10,6,,0.00,0,,318
2013-2-16,46,38,30,34,20,9,70,46,23,30.18,30.05,29.97,10,10,10,21,12,31,0.00,4,,321
2013-2-17,48,37,25,18,12,1,69,41,16,30.32,30.25,30.18,10,10,5,12,5,18,0.00,0,,290
2013-2-18,59,46,32,27,22,12,60,39,27,30.33,30.23,30.06,10,10,10,17,9,23,0.00,1,,158
2013-2-19,63,52,41,48,33,19,93,57,23,30.17,30.06,29.96,10,10,8,16,9,23,0.35,4,,286
2013-2-20,55,43,30,25,18,10,69,38,19,30.20,30.15,30.10,10,10,10,13,8,20,0.00,0,,347
2013-2-21,66,51,36,39,22,14,48,32,18,30.14,30.03,29.93,10,10,10,13,9,17,0.00,2,,103
2013-2-22,61,54,46,48,45,39,93,84,45,30.05,29.99,29.89,10,8,2,17,11,21,2.20,8,Thunderstorm,61
2013-2-23,52,49,45,46,44,41,93,87,76,29.95,29.89,29.82,10,9,0,12,6,18,0.61,7,Thunderstorm,14
2013-2-24,68,54,39,45,38,30,93,59,28,30.02,29.96,29.89,10,8,0,10,6,16,0.00,1,,26
2013-2-25,54,50,46,48,41,28,93,75,41,29.94,29.82,29.62,10,8,1,21,13,29,1.03,8,,80
2013-2-26,61,52,43,50,40,30,93,69,45,29.84,29.64,29.51,10,9,0,22,12,28,0.94,4,,233
2013-2-27,59,49,39,36,32,28,75,53,36,29.93,29.88,29.84,10,10,10,15,9,23,0.00,1,,262
2013-2-28,54,46,37,32,28,25,75,53,35,30.00,29.94,29.90,10,10,10,16,10,24,0.00,0,,294